Location: Milano
(45.4670°N, 9.2000°E)
Time: 04:49:28
(UTC+02:00)

X-37B - Pass Details

Date: 04 August 2021
Orbit: 381 x 393 km, 45.0° (Epoch: 29 August)

Event Time Altitude Azimuth Distance (km) Brightness Sun altitude
Exits shadow 04:16:23 30° 158° (SSE) 713 1.6 -16.8°
Maximum altitude 04:16:27 30° 155° (SSE) 712 1.7 -16.8°
Drops below altitude 10° 04:19:15 10° 92° (E) 1,397 3.9 -16.5°
Sets 04:21:27 0° 81° (E) 2,253 5.3 -16.2°
